WB0OCV Weather Reports


time (UTC)temp
C
wind
direction
speed
KPH
gust
KPH
rain 1hr
cm
rain 24hr
cm
rain mn
cm
humidity
%
barometer
mb
20260505091753 8 98 1.6 1.6 0.00 0.00 0.00 98 1014.7
20260505091250 8 111 0.0 0.0 0.00 0.00 0.00 98 1014.6
20260505090748 9 121 0.0 0.0 0.00 0.00 0.00 98 1014.6
20260505090246 8 120 0.0 0.0 0.00 0.00 0.00 98 1014.6
20260505085743 8 120 0.0 0.0 0.00 0.00 0.00 98 1014.4
20260505085241 8 120 0.0 0.0 0.00 0.00 0.00 98 1014.5
20260505084738 8 132 0.0 0.0 0.00 0.00 0.00 98 1014.5
20260505084238 8 132 0.0 0.0 0.00 0.00 0.00 98 1014.5
20260505083734 8 132 0.0 0.0 0.00 0.00 0.00 98 1014.5
20260505083230 8 131 0.0 0.0 0.00 0.00 0.00 98 1014.7
20260505082726 8 131 0.0 0.0 0.00 0.00 0.00 98 1014.5
20260505082224 8 129 0.0 0.0 0.00 0.00 0.00 97 1014.7
20260505081719 9 128 0.0 1.6 0.00 0.00 0.00 98 1014.5
20260505081217 8 121 0.0 0.0 0.00 0.00 0.00 97 1014.6
20260505080714 8 112 0.0 0.0 0.00 0.00 0.00 98 1014.6
20260505080210 8 120 0.0 0.0 0.00 0.00 0.00 97 1014.6
20260505075706 8 143 0.0 1.6 0.00 0.00 0.00 98 1014.6
20260505075203 8 111 0.0 0.0 0.00 0.00 0.00 97 1014.9
20260505074700 8 111 0.0 0.0 0.00 0.00 0.00 97 1014.9
20260505074157 9 111 0.0 0.0 0.00 0.00 0.00 97 1014.9
20260505073655 9 111 0.0 0.0 0.00 0.00 0.00 97 1015.0
20260505073153 9 111 0.0 0.0 0.00 0.00 0.00 97 1014.8
20260505072648 9 111 0.0 0.0 0.00 0.00 0.00 96 1014.8
20260505072145 9 112 0.0 0.0 0.00 0.00 0.00 96 1014.9
20260505071640 9 112 0.0 0.0 0.00 0.00 0.00 95 1014.6
20260505071138 10 112 0.0 0.0 0.00 0.00 0.00 95 1014.6
20260505070635 10 122 0.0 0.0 0.00 0.00 0.00 94 1014.8
20260505070132 10 131 0.0 0.0 0.00 0.00 0.00 94 1014.8
20260505065627 10 140 0.0 0.0 0.00 0.00 0.00 95 1014.8
20260505065124 10 139 0.0 4.8 0.00 0.00 0.00 94 1014.9
20260505064621 10 128 0.0 1.6 0.00 0.00 0.00 95 1014.6
20260505064120 9 124 0.0 0.0 0.00 0.00 0.00 95 1014.7
20260505063617 10 125 0.0 1.6 0.00 0.00 0.00 95 1014.8
20260505063112 10 135 0.0 1.6 0.00 0.00 0.00 94 1014.8
20260505062609 10 124 0.0 0.0 0.00 0.00 0.00 94 1014.6
20260505062106 10 124 0.0 3.2 0.00 0.00 0.00 94 1014.8
20260505061603 10 138 0.0 1.6 0.00 0.00 0.00 94 1014.7
20260505061102 10 132 0.0 0.0 0.00 0.00 0.00 94 1014.6
20260505060559 10 115 0.0 0.0 0.00 0.00 0.00 94 1014.7
20260505060055 10 116 0.0 3.2 0.00 0.00 0.00 93 1014.7
20260505055550 10 142 0.0 3.2 0.00 0.00 0.00 93 1014.8
20260505055048 10 140 1.6 1.6 0.00 0.00 0.00 93 1014.7
20260505054545 10 112 0.0 3.2 0.00 0.00 0.00 93 1014.9
20260505054043 10 123 0.0 1.6 0.00 0.00 0.00 92 1014.8
20260505053540 10 116 0.0 0.0 0.00 0.00 0.00 92 1014.8
20260505053036 10 78 1.6 1.6 0.00 0.00 0.00 91 1014.7
20260505052533 10 114 0.0 3.2 0.00 0.00 0.00 91 1014.7
20260505052031 10 113 0.0 1.6 0.00 0.00 0.00 90 1014.6
20260505051527 10 138 1.6 1.6 0.00 0.00 0.00 91 1014.8
20260505051026 10 134 1.6 3.2 0.00 0.00 0.00 90 1014.8
20260505050524 10 172 3.2 4.8 0.00 0.00 0.00 90 1014.8
20260505041451 10 115 0.0 1.6 0.00 0.00 0.00 91 1014.8
20260505040948 10 72 3.2 4.8 0.00 0.00 0.00 90 1015.1
20260505040446 10 127 0.0 3.2 0.00 0.00 0.00 89 1014.9
20260505035943 10 117 0.0 1.6 0.00 0.00 0.00 89 1015.3
20260505035439 10 121 0.0 6.4 0.00 0.00 0.00 88 1015.1
20260505034936 10 117 0.0 3.2 0.00 0.00 0.00 88 1015.2
20260505034432 10 172 0.0 6.4 0.00 0.00 0.00 88 1015.3
20260505033930 10 166 4.8 6.4 0.00 0.00 0.00 87 1015.2
20260505033426 10 133 0.0 3.2 0.00 0.00 0.00 87 1015.5
20260505032924 10 139 1.6 4.8 0.00 0.00 0.00 87 1015.5
20260505032421 10 222 3.2 3.2 0.00 0.00 0.00 87 1015.3
20260505031918 10 186 1.6 3.2 0.00 0.00 0.00 86 1015.4
20260505031415 10 185 1.6 4.8 0.00 0.00 0.00 86 1015.1
20260505030912 10 110 1.6 3.2 0.00 0.00 0.00 86 1015.2
20260505030408 10 213 3.2 4.8 0.00 0.00 0.00 86 1015.4
20260505025903 10 150 3.2 3.2 0.00 0.00 0.00 86 1015.4
20260505025401 11 236 4.8 4.8 0.00 0.00 0.00 85 1015.4
20260505024900 10 225 3.2 6.4 0.00 0.00 0.00 85 1015.3
20260505024357 11 161 1.6 3.2 0.00 0.00 0.00 85 1015.4
20260505023853 11 215 3.2 4.8 0.00 0.00 0.00 84 1015.4
20260505023351 11 152 3.2 3.2 0.00 0.00 0.00 84 1015.5
20260505022848 11 231 3.2 9.7 0.00 0.00 0.00 83 1015.4
20260505022344 11 141 3.2 4.8 0.00 0.00 0.00 83 1015.4
20260505021842 11 252 3.2 9.7 0.00 0.00 0.00 83 1015.2
20260505021338 11 216 3.2 9.7 0.00 0.00 0.00 83 1015.3
20260505020834 11 248 3.2 3.2 0.00 0.00 0.00 82 1015.6
20260505020330 11 228 4.8 9.7 0.00 0.00 0.00 82 1015.3
20260505015827 11 221 6.4 9.7 0.00 0.00 0.00 82 1015.2
20260505015324 11 106 1.6 6.4 0.00 0.00 0.00 81 1015.2
20260505014821 11 162 1.6 9.7 0.00 0.00 0.00 81 1015.1
20260505014318 11 244 3.2 4.8 0.00 0.00 0.00 81 1015.1
20260505013815 11 125 1.6 6.4 0.00 0.00 0.00 81 1015.1
20260505013312 11 192 3.2 9.7 0.00 0.00 0.00 80 1014.9
20260505012811 11 222 1.6 6.4 0.00 0.00 0.00 80 1014.8
20260505012308 11 236 3.2 4.8 0.00 0.00 0.00 80 1014.8
20260505011803 11 131 3.2 6.4 0.00 0.00 0.00 79 1014.4
20260505011301 11 191 3.2 9.7 0.00 0.00 0.00 79 1014.6
20260505010756 11 181 4.8 6.4 0.00 0.00 0.00 78 1014.7
20260505010252 11 188 3.2 3.2 0.00 0.00 0.00 77 1014.6
20260505005749 11 220 1.6 4.8 0.00 0.00 0.00 76 1014.5
20260505005246 11 276 3.2 6.4 0.00 0.00 0.00 75 1014.3
20260505004743 11 164 3.2 6.4 0.00 0.00 0.00 74 1014.3
20260505004239 11 215 3.2 9.7 0.00 0.00 0.00 74 1013.9
20260505003736 11 231 6.4 9.7 0.00 0.00 0.00 73 1014.0
20260505003234 11 207 3.2 4.8 0.00 0.00 0.00 73 1013.7
20260505002730 11 112 1.6 4.8 0.00 0.00 0.00 73 1013.9
20260505002228 11 225 4.8 4.8 0.00 0.00 0.00 73 1013.9
20260505001725 11 237 8.0 11.3 0.00 0.00 0.00 71 1013.6
20260505001223 11 211 3.2 14.5 0.00 0.00 0.00 71 1013.7
20260505000720 11 172 1.6 6.4 0.00 0.00 0.00 71 1013.6
20260505000219 11 260 6.4 6.4 0.00 0.00 0.00 70 1013.5
20260504235714 11 182 4.8 9.7 0.00 0.00 0.00 69 1013.4
20260504235210 11 242 6.4 11.3 0.00 0.00 0.00 69 1013.5
20260504234708 11 73 3.2 4.8 0.00 0.00 0.00 69 1013.3
20260504234204 11 209 3.2 14.5 0.00 0.00 0.00 69 1013.3
20260504233700 12 208 3.2 4.8 0.00 0.00 0.00 69 1013.3
20260504233156 12 239 3.2 11.3 0.00 0.00 0.00 68 1013.4
20260504232654 12 227 6.4 11.3 0.00 0.00 0.00 68 1013.3
20260504232151 12 234 6.4 14.5 0.00 0.00 0.00 67 1013.4
20260504231648 12 194 8.0 20.9 0.00 0.00 0.00 66 1013.4
20260504231144 12 131 1.6 14.5 0.00 0.00 0.00 66 1013.3
20260504230640 12 206 3.2 9.7 0.00 0.00 0.00 66 1013.3
20260504230139 12 211 8.0 12.9 0.00 0.00 0.00 65 1012.9
20260504225637 12 197 1.6 6.4 0.00 0.00 0.00 65 1013.2
20260504225133 12 166 3.2 4.8 0.00 0.00 0.00 64 1013.1
20260504224630 13 240 4.8 6.4 0.00 0.00 0.00 64 1013.1
20260504224126 13 240 3.2 12.9 0.00 0.00 0.00 63 1013.1
20260504223624 13 229 3.2 4.8 0.00 0.00 0.00 64 1013.1
20260504223119 13 110 3.2 6.4 0.00 0.00 0.00 64 1013.1
20260504222617 13 198 1.6 6.4 0.00 0.00 0.00 64 1013.0
20260504222114 13 223 3.2 9.7 0.00 0.00 0.00 63 1013.2
20260504221611 13 230 3.2 12.9 0.00 0.00 0.00 63 1013.1
20260504221108 13 175 1.6 4.8 0.00 0.00 0.00 64 1012.9
20260504220604 13 141 1.6 6.4 0.00 0.00 0.00 64 1013.1
20260504220101 13 125 1.6 6.4 0.00 0.00 0.00 63 1013.0
20260504215558 13 179 1.6 9.7 0.00 0.00 0.00 62 1013.1
20260504215055 13 223 4.8 4.8 0.00 0.00 0.00 62 1013.0
20260504214551 14 301 4.8 12.9 0.00 0.00 0.00 61 1013.3
20260504214048 14 181 1.6 11.3 0.00 0.00 0.00 59 1013.1
20260504213544 14 200 6.4 9.7 0.00 0.00 0.00 59 1013.0
20260504213041 14 181 6.4 14.5 0.00 0.00 0.00 60 1013.2
20260504212537 15 199 1.6 17.7 0.00 0.00 0.00 60 1013.2
20260504212034 15 100 4.8 9.7 0.00 0.00 0.00 58 1013.1
20260504211531 15 124 3.2 6.4 0.00 0.00 0.00 57 1013.2
20260504211028 15 198 6.4 9.7 0.00 0.00 0.00 57 1013.3
20260504210525 15 176 3.2 4.8 0.00 0.00 0.00 57 1013.2
20260504210022 15 260 9.7 16.1 0.00 0.00 0.00 56 1013.3
20260504205520 15 134 4.8 6.4 0.00 0.00 0.00 55 1013.1
20260504205018 16 195 3.2 6.4 0.00 0.00 0.00 54 1013.3
20260504204515 16 234 1.6 4.8 0.00 0.00 0.00 54 1013.0
20260504204014 16 197 3.2 6.4 0.00 0.00 0.00 54 1013.0
20260504203512 16 237 8.0 11.3 0.00 0.00 0.00 52 1013.0
20260504203009 16 150 3.2 4.8 0.00 0.00 0.00 51 1013.1
20260504202504 16 103 3.2 12.9 0.00 0.00 0.00 51 1012.8
20260504202001 17 221 4.8 11.3 0.00 0.00 0.00 52 1012.8
20260504201458 17 167 3.2 4.8 0.00 0.00 0.00 50 1012.6
20260504200956 17 295 3.2 9.7 0.00 0.00 0.00 50 1012.9
20260504200452 17 178 8.0 12.9 0.00 0.00 0.00 49 1012.7
20260504195949 18 168 1.6 4.8 0.00 0.00 0.00 46 1012.9
20260504195445 18 189 3.2 16.1 0.00 0.00 0.00 45 1013.0
20260504194942 18 181 3.2 6.4 0.00 0.00 0.00 45 1013.1
20260504194438 18 234 4.8 6.4 0.00 0.00 0.00 43 1012.7
20260504193934 18 171 3.2 6.4 0.00 0.00 0.00 45 1012.7
20260504193431 18 159 3.2 4.8 0.00 0.00 0.00 48 1013.0
20260504192930 18 168 3.2 9.7 0.00 0.00 0.00 45 1012.9
20260504192427 18 190 4.8 6.4 0.00 0.00 0.00 46 1013.1
20260504191926 18 151 3.2 6.4 0.00 0.00 0.00 46 1013.1
20260504191424 18 127 3.2 4.8 0.00 0.00 0.00 46 1013.0
20260504190918 18 258 8.0 11.3 0.00 0.00 0.00 46 1013.2
20260504190414 18 238 3.2 11.3 0.00 0.00 0.00 46 1013.1
20260504185911 18 246 9.7 14.5 0.00 0.00 0.00 46 1013.3
20260504185409 18 218 3.2 11.3 0.00 0.00 0.00 50 1013.3
20260504184904 18 211 3.2 9.7 0.00 0.00 0.00 48 1013.2
20260504184400 18 110 8.0 14.5 0.00 0.00 0.00 45 1013.3
20260504183856 18 280 12.9 17.7 0.00 0.00 0.00 45 1013.4
20260504183354 18 286 4.8 9.7 0.00 0.00 0.00 44 1013.1
20260504182851 19 222 6.4 11.3 0.00 0.00 0.00 51 1013.2
20260504182349 18 180 4.8 9.7 0.00 0.00 0.00 53 1013.1
20260504181845 18 197 3.2 11.3 0.00 0.00 0.00 51 1013.0
20260504181343 18 127 4.8 6.4 0.00 0.00 0.00 48 1013.0
20260504180841 18 170 3.2 11.3 0.00 0.00 0.00 49 1013.1
20260504180339 18 205 6.4 6.4 0.00 0.00 0.00 52 1013.1
20260504175837 18 295 1.6 9.7 0.00 0.00 0.00 52 1013.0
20260504175334 18 124 1.6 9.7 0.00 0.00 0.00 52 1013.1
20260504174832 19 179 6.4 9.7 0.00 0.00 0.00 50 1013.1
20260504174329 18 214 4.8 4.8 0.00 0.00 0.00 49 1013.2
20260504173826 18 268 4.8 6.4 0.00 0.00 0.00 49 1013.1
20260504173323 19 207 8.0 9.7 0.00 0.00 0.00 53 1013.2
20260504172820 18 272 6.4 16.1 0.00 0.00 0.00 49 1013.2
20260504172316 18 166 3.2 6.4 0.00 0.00 0.00 52 1012.8
20260504171812 18 164 1.6 4.8 0.00 0.00 0.00 48 1013.1
20260504171310 18 83 3.2 11.3 0.00 0.00 0.00 49 1013.1
20260504170807 18 260 9.7 16.1 0.00 0.00 0.00 47 1013.0
20260504170304 17 165 4.8 12.9 0.00 0.00 0.00 49 1013.3
20260504160222 17 246 6.4 6.4 0.00 0.00 0.00 53 1013.6
20260504150653 16 176 6.4 9.7 0.00 0.00 0.00 51 1014.1
20260504150149 16 186 6.4 14.5 0.00 0.00 0.00 52 1014.1
20260504141119 15 228 3.2 9.7 0.00 0.00 0.00 57 1014.5
20260504140615 15 231 6.4 14.5 0.00 0.00 0.00 58 1014.6
20260504140111 14 176 1.6 4.8 0.00 0.00 0.00 59 1014.3
20260504130539 13 170 3.2 9.7 0.00 0.00 0.00 67 1014.8
20260504110426 10 206 3.2 9.7 0.00 0.00 0.00 75 1014.6
20260504100343 7 120 0.0 0.0 0.00 0.00 0.00 83 1014.1